Flag for United Kingdom Weather past 2 weeks in Liverpool, England, United Kingdom

Now
50 °F

Scattered clouds.


Feels Like: 47 °F
Forecast: 44 / 51 °F
Wind: 7 mph from West

Location: Liverpool Airport

Current Time: Apr 27, 2015 at 5:09:41 PM

Latest Report: Apr 27, 2015 at 4:20 PM


Visibility: N/A

Pressure: 29.80 "Hg

Humidity: 54%

Dew point: 34 °F

Location of LiverpoolLocation

Historic Weather in Liverpool — Graph

°F

Liverpool temperature yesterday

Maximum temperature yesterday: 50 °F (at 11:50 AM)
Minimum temperature yesterday: 39 °F (at 6:50 AM)
Average temperature yesterday: 46 °F

Past Weeks' High & Low Weather Summary

 TemperatureHumidityPressure
High64 °F (Apr 22, 2:20 PM)100% (Apr 13, 3:50 AM)30.60 "Hg (Apr 13, 3:50 AM)
Low36 °F (Apr 13, 3:20 AM)40% (Apr 27, 12:50 PM)29.56 "Hg (Apr 25, 5:20 AM)
Average50 °F74%30.16 "Hg
* Reported Apr 12 3:20 PM — Apr 27 3:50 PM, Liverpool, Weather by CustomWeather, © 2015

Note: Actual official high and low records may vary slightly from our data, if they occured in-between our weather recording intervals... More about our weather records

Advertising

Liverpool weather history for previous 24 hours

 ConditionsComfort  
Time TempWeatherWind HumidityBarometerVisibility
3:50 PM
Mon, Apr 27
52 °FScattered clouds.7 mph47%29.80 "HgN/A
3:20 PM50 °FScattered clouds.8 mph50%29.83 "HgN/A
2:50 PM50 °FScattered clouds.5 mph50%29.83 "HgN/A
2:20 PM50 °FScattered clouds.6 mph50%29.83 "HgN/A
1:50 PM50 °FScattered clouds.6 mph47%29.83 "HgN/A
1:20 PM50 °FScattered clouds.6 mph40%29.86 "HgN/A
12:50 PM50 °FScattered clouds.5 mph40%29.86 "HgN/A
12:20 PM48 °FScattered clouds.2 mph54%29.86 "HgN/A
11:50 AM48 °FPassing clouds.5 mph54%29.86 "HgN/A
11:20 AM48 °FPassing clouds.5 mph50%29.89 "HgN/A
10:50 AM46 °FPassing clouds.5 mph53%29.89 "HgN/A
10:20 AM46 °FPassing clouds.3 mph57%29.89 "HgN/A
9:50 AM45 °FSunny.3 mph53%29.89 "Hg10 mi
9:20 AM45 °FSunny.3 mph57%29.89 "Hg10 mi
8:50 AM43 °FSunny.3 mph61%29.89 "Hg10 mi
8:20 AM43 °FSunny.3 mph66%29.89 "Hg10 mi
7:50 AM41 °FSunny.2 mph70%29.89 "Hg10 mi
7:20 AM39 °FSunny.3 mph87%29.89 "Hg10 mi
6:50 AM37 °FSunny.2 mph75%29.89 "Hg10 mi
6:20 AM39 °FClear.3 mph65%29.89 "Hg10 mi
5:50 AM37 °FClear.5 mph70%29.86 "Hg10 mi
5:20 AM37 °FClear.3 mph70%29.86 "Hg10 mi
4:50 AM37 °FClear.5 mph70%29.86 "Hg10 mi
4:20 AM37 °FClear.6 mph75%29.89 "Hg10 mi
3:50 AM39 °FPassing clouds.7 mph70%29.86 "HgN/A
2:50 AM41 °FPassing clouds.6 mph70%29.86 "HgN/A
2:20 AM43 °FPassing clouds.6 mph66%29.86 "HgN/A
1:50 AM43 °FPassing clouds.6 mph66%29.89 "HgN/A
1:20 AM43 °FPassing clouds.7 mph71%29.89 "HgN/A
12:50 AM43 °FPassing clouds.6 mph71%29.86 "HgN/A
12:20 AM43 °FPassing clouds.7 mph71%29.86 "HgN/A
11:50 PM
Sun, Apr 26
43 °FPassing clouds.7 mph71%29.86 "HgN/A
11:20 PM45 °FPassing clouds.6 mph66%29.86 "HgN/A
10:50 PM45 °FPassing clouds.7 mph66%29.86 "HgN/A
10:20 PM43 °FPassing clouds.6 mph71%29.86 "HgN/A
9:50 PM45 °FPassing clouds.8 mph66%29.86 "HgN/A
9:20 PM45 °FPassing clouds.8 mph71%29.86 "HgN/A
8:50 PM45 °FPassing clouds.12 mph71%29.86 "HgN/A
8:20 PM46 °FScattered showers. Scattered clouds.14 mph66%29.86 "HgN/A
7:50 PM46 °FScattered clouds.14 mph71%29.86 "HgN/A
7:20 PM46 °FScattered clouds.15 mph62%29.86 "HgN/A
6:50 PM48 °FPassing clouds.15 mph58%29.83 "HgN/A
6:20 PM50 °FPassing clouds.14 mph50%29.83 "HgN/A
5:50 PM48 °FPassing clouds.16 mph46%29.83 "HgN/A
5:20 PM48 °FPassing clouds.16 mph50%29.83 "HgN/A
Weather by CustomWeather, © 2015

See weather overviewHow to use our weather pages